[[{"header":{"parameterUnit":"m.s-1","parameterCategory":1,"la1":30.2991,"la2":30.254,"lo1":-89.0895,"lo2":-89.0444,"dy":0.0017,"dx":0.0017,"nx":28,"ny":28,"refTime":"2025-06-11T09:00:00:Z","depth":0,"parameterNumber":2,"parameterNumberName":"U-component_of_WINDS"},"data":[0,0,0,0,0,0,0,0,0,0,0,0,0,0,0,0,0,0,0,0,0,0,0,0,0,0,0,0,0,0,0,0,0,0,0,0,0,0,0,0,0,0,0,0,0,0,0,0,0,0,0,0,0,0,0,0,0,0,-0.0006,-0.0005,0,0.0157,0.0159,0.016,0.0172,0.0171,0.0169,0.0167,0.034,0.0346,0.0352,0,0,0,0,0,0,0,0,0,0,0,0,0,-0.0303,-0.0297,-0.0007,-0.0005,-0.0003,0.0156,0.0159,0.0161,0.0173,0.017,0.0168,0.0166,0.0338,0.0345,0.0353,0,0,0,0,0,0,0,0,0,0,0,0,0,-0.016,-0.0295,-0.0007,0.0022,0.0027,0.0156,0.0159,0.0162,0.0173,0.017,0.0168,0.0165,0.0335,0.0344,0.0354,0.0467,0,0,0.0382,0.0386,0,0,0,0,0,0,0,0,-0.0168,-0.0149,0.0016,0.0021,0.0026,0.0141,0.0118,0.0264,0.0174,0.0118,0.0167,0.0164,0.0276,0.029,0.0327,0.0475,0.0482,0.0383,0.0389,0.0393,0.0396,0,0,0,0,0,0,0,-0.0178,-0.0156,0.0058,0.0018,0.0024,0.0029,0.0046,0.0145,0.0211,0.0122,0.0124,0.0142,0.0278,0.0318,0.0331,0.0485,0.0383,0.0391,0.0397,0.0401,0.0735,0.0738,0,0,0,0,0,0,-0.0194,-0.0164,0.0053,0.0063,-0.008,0.0037,0.0056,0.0107,0.0209,0.0222,0.0145,0.0142,0.0303,0.032,0.0337,0.0478,0.0393,0.0402,0.0407,0.0732,0.0736,0.0739,0,0,0,0,0,0,-0.0201,-0.0175,0.0046,-0.005,-0.0022,0.0045,0.0102,0.0112,0.0151,0.0226,0.0238,0.0173,0.0302,0.0324,0.0434,0.0484,0.0406,0.0415,0.0728,0.0733,0.0738,0.076,0,0,0,0,0,0,-0.0209,-0.0177,-0.0135,-0.0049,-0.0017,0.0139,0.0105,0.0117,0.0167,0.0166,0.0256,0.0268,0.0301,0.042,0.0444,0.0496,0.0422,0.0724,0.073,0.0736,0.0755,0.0765,0.0773,0,0,0,0,0,-0.022,-0.0135,-0.0133,-0.0107,0.0037,0.0142,0.0161,0.0196,0.0171,0.0215,0.0263,0.0265,0.0474,0.0431,0.0458,0.0514,0.0721,0.0729,0.0736,0.0751,0.0763,0.0773,0,0,0,0,0,0,-0.0214,-0.0123,-0.012,-0.0005,0.006,0.0144,0.02,0.0207,0.0282,0.0278,0.0319,0.034,0.0449,0.0492,0.0443,0.063,0.0595,0.0608,0.0598,0.061,0.0619,0.0607,0.043,0,0,0,0,0,-0.02,-0.0125,-0.0048,0.0046,0.0078,0.0134,0.0181,0.0201,0.0272,0.03,0.0356,0.0426,0.0508,0.0561,0.064,0.076,0.0782,0.0812,0.0821,0.0828,0.084,0.0909,0.0924,0.0763,0.0763,0.0763,0,0,-0.0169,-0.011,-0.0065,0.0049,0.0102,0.0181,0.0157,0.0242,0.0302,0.0314,0.0421,0.0465,0.0546,0.0662,0.0716,0.0701,0.0888,0.0837,0.0842,0.085,0.0918,0.0933,0.0946,0.0768,0.0767,0.0767,0,0,-0.0072,-0.0021,0.0064,0.0118,0.0198,0.0234,0.0254,0.0337,0.0366,0.0474,0.0485,0.0558,0.0697,0.0755,0.0802,0.0921,0.0927,0.0946,0.0995,0.1062,0.1074,0.1086,0.1131,0.1146,0.0957,0.0957,0.0957,0,-0.0043,0.0075,0.0108,0.0192,0.0243,0.0255,0.0343,0.0394,0.0497,0.0532,0.0513,0.0689,0.0744,0.0875,0.0904,0.0941,0.0968,0.0937,0.1069,0.1081,0.1093,0.1136,0.1153,0.0959,0.0959,0.0958,0.0958,0,0.0108,0.019,0.0249,0.0347,0.0404,0.049,0.0537,0.0591,0.0607,0.0646,0.0757,0.0823,0.0917,0.0949,0.0965,0.1083,0.1072,0.106,0.1028,0.1109,0.1151,0.1168,0.0962,0.0961,0.096,0.096,0,0,0.0215,0.0329,0.035,0.0395,0.0485,0.055,0.0637,0.0727,0.0774,0.0844,0.092,0.1037,0.1028,0.1081,0.1105,0.1163,0.1256,0.1145,0.1148,0.1166,0.1393,0.1402,0.1421,0.1259,0.1263,0.1265,0.1387,0,0.0324,0.0478,0.051,0.0644,0.0722,0.0734,0.081,0.0875,0.0913,0.0986,0.1029,0.1113,0.1092,0.1125,0.1183,0.1232,0.1303,0.1224,0.1333,0.1337,0.1315,0.1442,0.1452,0.1564,0.1403,0.1406,0.1408,0,0.0473,0.0545,0.0687,0.0767,0.0801,0.0868,0.0954,0.1023,0.1096,0.1121,0.118,0.1198,0.1291,0.1251,0.1382,0.1328,0.1374,0.1405,0.141,0.1424,0.1379,0.1462,0.16,0.1617,0.1433,0.1431,0.1429,0,0.054,0.0673,0.0775,0.0813,0.0908,0.0956,0.0998,0.1069,0.1122,0.1197,0.1232,0.1317,0.1365,0.1431,0.1472,0.1439,0.16,0.1563,0.1625,0.1624,0.1661,0.1658,0.1811,0.1686,0.1686,0.1686,0.1685,0,0.066,0.0747,0.0806,0.087,0.0968,0.1004,0.1101,0.1143,0.1206,0.1279,0.1295,0.1364,0.1412,0.1488,0.152,0.1625,0.1646,0.167,0.1678,0.167,0.1667,0.1703,0.1697,0.169,0.1689,0.1688,0.1687,0,0.0752,0.0795,0.0908,0.0989,0.1011,0.108,0.115,0.1213,0.1251,0.1344,0.1368,0.1429,0.1519,0.1565,0.1678,0.17,0.1819,0.1821,0.1794,0.1798,0.1857,0.1852,0.204,0.2068,0.1922,0.1924,0.1925,0,0.0827,0.0894,0.0982,0.1031,0.1074,0.1153,0.1207,0.1245,0.13,0.1389,0.1442,0.1533,0.1608,0.1752,0.1808,0.1895,0.1901,0.1961,0.1914,0.1905,0.1905,0.1902,0.191,0.197,0.1971,0.1972,0.1973,0,0.0957,0.0975,0.105,0.1133,0.1196,0.1264,0.1331,0.1371,0.142,0.1482,0.1574,0.1632,0.1746,0.1838,0.1929,0.1974,0.1984,0.1987,0.2006,0.2,0.1983,0.1996,0.1819,0.1983,0.1982,0.1982,0.1981,0.1981,0.1045,0.1106,0.1177,0.1261,0.1315,0.1377,0.144,0.1486,0.1563,0.1658,0.1676,0.1774,0.1848,0.1971,0.2019,0.2098,0.2086,0.2113,0.212,0.2127,0.2131,0.1968,0.2114,0.2114,0.2114,0.2114,0.2114,0,0.1178,0.1224,0.13,0.1393,0.1459,0.1459,0.1533,0.159,0.1675,0.1742,0.1815,0.1921,0.201,0.2072,0.2162,0.2213,0.222,0.2236,0.2234,0.2245,0.2136,0.2111,0.2229,0.2229,0.2229,0.2229,0.2229,0.2229,0.1255,0.1358,0.1385,0.1515,0.1562,0.1656,0.1699,0.1758,0.1811,0.1929,0.2002,0.2041,0.2107,0.2202,0.2283,0.2299,0.2333,0.235,0.2366,0.2264,0.2252,0.2241,0.2218,0.2356,0.2356,0.2469,0.247,0.2471]},{"header":{"parameterUnit":"m.s-1","parameterCategory":1,"la1":30.2991,"la2":30.254,"lo1":-89.0895,"lo2":-89.0444,"dy":0.0017,"dx":0.0017,"nx":28,"ny":28,"refTime":"2025-06-11T09:00:00:Z","depth":0,"parameterNumber":3,"parameterNumberName":"V-component_of_WINDS"},"data":[0,0,0,0,0,0,0,0,0,0,0,0,0,0,0,0,0,0,0,0,0,0,0,0,0,0,0,0,0,0,0,0,0,0,0,0,0,0,0,0,0,0,0,0,0,0,0,0,0,0,0,0,0,0,0,0,0,0,0.3007,0.3009,0,0.3151,0.3153,0.3154,0.3175,0.3173,0.3172,0.3171,0.3325,0.333,0.3336,0,0,0,0,0,0,0,0,0,0,0,0,0,0.2756,0.2761,0.3007,0.3009,0.3011,0.3151,0.3153,0.3155,0.3175,0.3173,0.3172,0.317,0.3323,0.333,0.3336,0,0,0,0,0,0,0,0,0,0,0,0,0,0.2879,0.2762,0.3007,0.3037,0.3042,0.315,0.3153,0.3155,0.3175,0.3173,0.3171,0.3169,0.3321,0.3329,0.3337,0.3427,0,0,0.3362,0.3365,0,0,0,0,0,0,0,0,0.2872,0.2888,0.3031,0.3036,0.304,0.3143,0.3121,0.3247,0.3176,0.3125,0.3171,0.3168,0.3266,0.3279,0.3311,0.3434,0.3441,0.3362,0.3367,0.3371,0.3373,0,0,0,0,0,0,0,0.2864,0.2882,0.3064,0.3033,0.3039,0.3046,0.3061,0.3145,0.3206,0.3129,0.3131,0.3147,0.3269,0.3303,0.3314,0.3443,0.3362,0.3369,0.3374,0.3377,0.3649,0.3651,0,0,0,0,0,0,0.2849,0.2875,0.306,0.3069,0.2949,0.3052,0.3069,0.3112,0.3205,0.3217,0.3149,0.3148,0.329,0.3305,0.332,0.3432,0.3371,0.3378,0.3383,0.3646,0.3649,0.3652,0,0,0,0,0,0,0.2843,0.2865,0.3054,0.2972,0.2997,0.3059,0.3107,0.3116,0.315,0.3219,0.3231,0.3172,0.3289,0.3309,0.34,0.3438,0.3382,0.3389,0.3643,0.3647,0.365,0.3658,0,0,0,0,0,0,0.2836,0.2863,0.2896,0.2973,0.3001,0.313,0.3109,0.312,0.3163,0.3163,0.3244,0.3256,0.3289,0.3388,0.3408,0.3448,0.3395,0.364,0.3645,0.3649,0.3654,0.3661,0.3667,0,0,0,0,0,0.2827,0.2894,0.2898,0.292,0.3044,0.3132,0.3149,0.3183,0.3166,0.3201,0.3246,0.3253,0.343,0.3397,0.342,0.3463,0.3638,0.3644,0.3649,0.3652,0.366,0.3666,0,0,0,0,0,0,0.2824,0.2905,0.291,0.3004,0.306,0.3135,0.3181,0.3191,0.3255,0.3253,0.3295,0.3313,0.3403,0.3442,0.3404,0.3555,0.3533,0.3543,0.3527,0.3535,0.3541,0.3531,0.3402,0,0,0,0,0,0.2833,0.2896,0.2964,0.3041,0.3068,0.3119,0.3159,0.318,0.3242,0.3267,0.3318,0.3379,0.3448,0.3494,0.3561,0.3659,0.3678,0.37,0.3706,0.371,0.372,0.3775,0.3786,0.3669,0.3669,0.3669,0,0,0.2856,0.2908,0.2945,0.3041,0.3088,0.3154,0.314,0.321,0.326,0.3278,0.3368,0.3407,0.3478,0.3573,0.3617,0.3608,0.3755,0.3717,0.372,0.3728,0.3782,0.3793,0.3802,0.3673,0.3672,0.3672,0,0,0.293,0.2974,0.3043,0.3089,0.3158,0.3191,0.3208,0.3281,0.3307,0.3396,0.3411,0.3471,0.3589,0.3639,0.368,0.377,0.3781,0.3791,0.3825,0.3878,0.3887,0.3896,0.393,0.3941,0.3799,0.38,0.38,0,0.295,0.3047,0.3078,0.3147,0.319,0.3205,0.3276,0.332,0.3409,0.3439,0.3426,0.3574,0.3623,0.373,0.3752,0.3784,0.3805,0.3784,0.3883,0.3892,0.39,0.3933,0.3945,0.3801,0.38,0.38,0.38,0,0.3069,0.3136,0.3183,0.3266,0.3313,0.3383,0.3426,0.3471,0.3487,0.3522,0.3613,0.3671,0.3751,0.3777,0.3795,0.3887,0.3879,0.3874,0.3853,0.3912,0.3943,0.3956,0.3802,0.3802,0.3801,0.3801,0,0,0.3149,0.3244,0.3262,0.3299,0.3376,0.343,0.35,0.3575,0.3613,0.3673,0.3735,0.3833,0.3828,0.3875,0.3898,0.3944,0.4013,0.3934,0.3936,0.3948,0.412,0.4125,0.4139,0.4018,0.4021,0.4023,0.4114,0,0.3234,0.3358,0.3387,0.3494,0.3558,0.3572,0.3634,0.3688,0.3722,0.3782,0.382,0.3889,0.3877,0.3905,0.3951,0.3995,0.4048,0.3988,0.4079,0.4082,0.4063,0.4155,0.4161,0.4245,0.4126,0.4129,0.413,0,0.335,0.341,0.3523,0.359,0.3618,0.3673,0.3744,0.38,0.3862,0.3883,0.3933,0.3951,0.4026,0.3998,0.4104,0.4062,0.41,0.4127,0.4131,0.4143,0.4112,0.4172,0.4272,0.4285,0.415,0.4148,0.4147,0,0.34,0.3508,0.359,0.3622,0.3701,0.374,0.3775,0.3835,0.3878,0.394,0.3968,0.4039,0.4079,0.4133,0.417,0.4146,0.4273,0.4248,0.4295,0.4294,0.4324,0.4322,0.4434,0.4344,0.4344,0.4343,0.4343,0,0.3494,0.3563,0.3614,0.3664,0.3743,0.3775,0.3852,0.3888,0.394,0.3999,0.4015,0.4071,0.4114,0.4176,0.4205,0.4289,0.4306,0.4327,0.4335,0.4327,0.4325,0.4356,0.4352,0.4347,0.4346,0.4345,0.4345,0,0.3564,0.36,0.3691,0.3757,0.3776,0.3831,0.3889,0.3939,0.3971,0.4046,0.4066,0.4118,0.4191,0.4232,0.4325,0.4344,0.4438,0.4441,0.4417,0.442,0.4466,0.4462,0.4604,0.4624,0.4517,0.4518,0.4519,0,0.3623,0.3676,0.3748,0.3787,0.3822,0.3886,0.3929,0.3962,0.4007,0.408,0.4122,0.4195,0.4256,0.4373,0.442,0.4491,0.4498,0.4542,0.4509,0.45,0.4501,0.4499,0.4505,0.455,0.455,0.4551,0.4552,0,0.3725,0.3739,0.38,0.3866,0.3916,0.3971,0.4025,0.4057,0.4099,0.4148,0.4222,0.4269,0.4361,0.4435,0.4509,0.4547,0.4558,0.4561,0.4576,0.4571,0.4556,0.4567,0.4435,0.4559,0.4558,0.4558,0.4557,0.4557,0.3794,0.3841,0.3898,0.3965,0.4008,0.4058,0.4108,0.4145,0.4207,0.4284,0.4299,0.4378,0.4437,0.4537,0.4577,0.464,0.4632,0.4653,0.4659,0.4664,0.4667,0.4542,0.4653,0.4653,0.4653,0.4653,0.4652,0,0.3898,0.3934,0.3995,0.4069,0.4121,0.4121,0.4181,0.4226,0.4293,0.4347,0.4405,0.449,0.456,0.4611,0.4684,0.4724,0.4731,0.4742,0.4741,0.475,0.4669,0.465,0.4736,0.4736,0.4736,0.4736,0.4736,0.4736,0.3959,0.404,0.4061,0.4164,0.42,0.4275,0.4309,0.4356,0.4398,0.4491,0.4549,0.458,0.4634,0.4709,0.4774,0.4787,0.4815,0.4826,0.484,0.4765,0.4756,0.4748,0.473,0.4831,0.4831,0.4916,0.4917,0.4918]}]]